• en France
  • Liste des pays
  • À 7 jours
  • Température de l'eau
  • Carte satellitaire
  • Carte météo
  • Widgets météo
  • user-avatar
    Se connecter

    Météo par heure à Hotovan

    Ce jour, 16 Juillet, Lundi

    Heure Température Précipitation Vent Pression Humidité
    00:00 +20°C° 0 mm 1 m/s 752 mmHg 94%
    01:00 +18°C° 0 mm 2 m/s 752 mmHg 95%
    02:00 +19°C° 0 mm 1 m/s 752 mmHg 96%
    03:00 +18°C° 0,3 mm 2 m/s 752 mmHg 96%
    04:00 +18°C° 0,3 mm 2 m/s 752 mmHg 96%
    05:00 +18°C° 0,3 mm 2 m/s 752 mmHg 96%
    06:00 +20°C° 0,1 mm 2 m/s 753 mmHg 92%
    07:00 +21°C° 0,1 mm 2 m/s 753 mmHg 88%
    08:00 +24°C° 0 mm 2 m/s 753 mmHg 82%
    09:00 +25°C° 0,6 mm 2 m/s 753 mmHg 77%
    10:00 +26°C° 0,6 mm 3 m/s 752 mmHg 72%
    11:00 +28°C° 0,6 mm 3 m/s 752 mmHg 66%
    12:00 +29°C° 0 mm 4 m/s 752 mmHg 60%
    13:00 +30°C° 0 mm 4 m/s 752 mmHg 53%
    14:00 +32°C° 0 mm 4 m/s 751 mmHg 46%
    15:00 +30°C° 0 mm 4 m/s 751 mmHg 48%
    16:00 +30°C° 0 mm 3 m/s 751 mmHg 50%
    17:00 +30°C° 0 mm 3 m/s 751 mmHg 52%
    18:00 +28°C° 0 mm 3 m/s 751 mmHg 58%
    19:00 +26°C° 0 mm 3 m/s 751 mmHg 65%
    20:00 +25°C° 0 mm 2 m/s 751 mmHg 72%
    21:00 +24°C° 0 mm 3 m/s 752 mmHg 72%
    22:00 +22°C° 0 mm 3 m/s 752 mmHg 72%
    23:00 +21°C° 0 mm 3 m/s 752 mmHg 73%

    Demain, 17 Juillet, Mardi

    Heure Température Précipitation Vent Pression Humidité
    00:00 +21°C° 0 mm 3 m/s 752 mmHg 75%
    01:00 +20°C° 0 mm 3 m/s 752 mmHg 77%
    02:00 +19°C° 0 mm 2 m/s 752 mmHg 80%
    03:00 +19°C° 0 mm 3 m/s 752 mmHg 80%
    04:00 +19°C° 0 mm 3 m/s 752 mmHg 81%
    05:00 +19°C° 0 mm 3 m/s 752 mmHg 81%
    06:00 +21°C° 0 mm 3 m/s 752 mmHg 76%
    07:00 +23°C° 0 mm 4 m/s 752 mmHg 71%
    08:00 +25°C° 0 mm 4 m/s 752 mmHg 66%
    09:00 +27°C° 0 mm 4 m/s 752 mmHg 61%
    10:00 +28°C° 0 mm 5 m/s 751 mmHg 56%
    11:00 +30°C° 0 mm 5 m/s 751 mmHg 50%
    12:00 +30°C° 0 mm 5 m/s 751 mmHg 48%
    13:00 +32°C° 0 mm 5 m/s 751 mmHg 45%
    14:00 +32°C° 0 mm 5 m/s 751 mmHg 43%
    15:00 +32°C° 0 mm 5 m/s 750 mmHg 44%
    16:00 +32°C° 0 mm 4 m/s 750 mmHg 45%
    17:00 +30°C° 0 mm 4 m/s 750 mmHg 45%
    18:00 +28°C° 0 mm 4 m/s 750 mmHg 52%
    19:00 +26°C° 0 mm 3 m/s 750 mmHg 59%
    20:00 +24°C° 0 mm 3 m/s 750 mmHg 65%
    21:00 +24°C° 0 mm 3 m/s 751 mmHg 66%
    22:00 +22°C° 0 mm 3 m/s 751 mmHg 66%
    23:00 +21°C° 0 mm 3 m/s 751 mmHg 67%

    Après-demain, 18 Juillet, Mercredi

    Heure Température Précipitation Vent Pression Humidité
    00:00 +21°C° 0 mm 3 m/s 751 mmHg 68%
    01:00 +21°C° 0 mm 3 m/s 751 mmHg 69%
    02:00 +20°C° 0 mm 3 m/s 751 mmHg 70%
    03:00 +20°C° 0 mm 3 m/s 751 mmHg 73%
    04:00 +20°C° 0 mm 3 m/s 751 mmHg 75%
    05:00 +19°C° 0 mm 3 m/s 751 mmHg 77%
    06:00 +21°C° 0 mm 4 m/s 751 mmHg 73%
    07:00 +22°C° 0 mm 4 m/s 750 mmHg 69%
    08:00 +25°C° 0 mm 5 m/s 750 mmHg 64%
    09:00 +26°C° 0 mm 5 m/s 750 mmHg 60%
    10:00 +27°C° 0 mm 5 m/s 750 mmHg 56%
    11:00 +28°C° 0 mm 5 m/s 750 mmHg 52%
    12:00 +28°C° 0,7 mm 5 m/s 750 mmHg 57%
    13:00 +27°C° 0,7 mm 4 m/s 750 mmHg 61%
    14:00 +27°C° 0,7 mm 4 m/s 749 mmHg 66%
    15:00 +26°C° 0,3 mm 3 m/s 749 mmHg 69%
    16:00 +26°C° 0,3 mm 2 m/s 749 mmHg 73%
    17:00 +25°C° 0,3 mm 1 m/s 749 mmHg 76%
    18:00 +24°C° 0,5 mm 1 m/s 749 mmHg 79%
    19:00 +23°C° 0,5 mm 1 m/s 749 mmHg 83%
    20:00 +22°C° 0,5 mm 1 m/s 749 mmHg 86%
    21:00 +22°C° 0,2 mm 1 m/s 749 mmHg 86%
    22:00 +20°C° 0,2 mm 2 m/s 749 mmHg 86%
    23:00 +20°C° 0,2 mm 2 m/s 749 mmHg 87%

    19 Juillet, Jeudi

    Heure Température Précipitation Vent Pression Humidité
    00:00 +20°C° 0 mm 2 m/s 749 mmHg 87%
    01:00 +19°C° 0 mm 2 m/s 749 mmHg 88%
    02:00 +19°C° 0 mm 2 m/s 749 mmHg 89%
    03:00 +19°C° 0,1 mm 3 m/s 749 mmHg 89%
    04:00 +19°C° 0,1 mm 3 m/s 749 mmHg 90%
    05:00 +19°C° 0,1 mm 3 m/s 749 mmHg 90%
    06:00 +20°C° 0 mm 3 m/s 749 mmHg 88%
    07:00 +20°C° 0 mm 3 m/s 749 mmHg 86%
    08:00 +21°C° 0 mm 4 m/s 749 mmHg 84%
    09:00 +21°C° 0,1 mm 3 m/s 749 mmHg 82%
    10:00 +22°C° 0,1 mm 3 m/s 749 mmHg 81%
    11:00 +22°C° 0,1 mm 3 m/s 749 mmHg 79%
    12:00 +24°C° 0,1 mm 3 m/s 749 mmHg 73%
    13:00 +26°C° 0,1 mm 3 m/s 749 mmHg 67%
    14:00 +27°C° 0,1 mm 3 m/s 749 mmHg 61%
    15:00 +26°C° 0,6 mm 3 m/s 748 mmHg 69%
    16:00 +25°C° 0,6 mm 3 m/s 748 mmHg 78%
    17:00 +25°C° 0,6 mm 3 m/s 748 mmHg 86%
    18:00 +24°C° 0,3 mm 3 m/s 748 mmHg 89%
    19:00 +23°C° 0,3 mm 2 m/s 748 mmHg 91%
    20:00 +21°C° 0,3 mm 2 m/s 748 mmHg 94%
    21:00 +20°C° 0 mm 2 m/s 748 mmHg 95%
    22:00 +19°C° 0 mm 2 m/s 748 mmHg 96%
    23:00 +19°C° 0 mm 2 m/s 748 mmHg 97%

    20 Juillet, Vendredi

    Heure Température Précipitation Vent Pression Humidité
    00:00 +19°C° 0 mm 2 m/s 748 mmHg 97%
    01:00 +18°C° 0 mm 2 m/s 748 mmHg 98%
    02:00 +18°C° 0 mm 2 m/s 748 mmHg 98%
    03:00 +18°C° 0 mm 2 m/s 748 mmHg 98%
    04:00 +18°C° 0 mm 2 m/s 748 mmHg 98%
    05:00 +18°C° 0 mm 2 m/s 748 mmHg 98%
    06:00 +19°C° 0 mm 2 m/s 748 mmHg 96%
    07:00 +20°C° 0 mm 2 m/s 748 mmHg 95%
    08:00 +20°C° 0 mm 3 m/s 747 mmHg 93%
    09:00 +21°C° 0,2 mm 3 m/s 747 mmHg 91%
    10:00 +23°C° 0,2 mm 2 m/s 747 mmHg 89%
    11:00 +23°C° 0,2 mm 2 m/s 747 mmHg 86%
    12:00 +24°C° 1,2 mm 2 m/s 747 mmHg 85%
    13:00 +25°C° 1,2 mm 2 m/s 747 mmHg 84%
    14:00 +25°C° 1,2 mm 2 m/s 746 mmHg 83%
    15:00 +26°C° 0,8 mm 2 m/s 746 mmHg 82%
    16:00 +26°C° 0,8 mm 2 m/s 746 mmHg 81%
    17:00 +26°C° 0,8 mm 2 m/s 746 mmHg 81%
    18:00 +25°C° 0,3 mm 2 m/s 746 mmHg 85%
    19:00 +24°C° 0,3 mm 1 m/s 746 mmHg 89%
    20:00 +23°C° 0,3 mm 1 m/s 746 mmHg 93%
    21:00 +22°C° 0 mm 1 m/s 746 mmHg 95%
    22:00 +21°C° 0 mm 1 m/s 746 mmHg 96%
    23:00 +21°C° 0 mm 1 m/s 746 mmHg 97%

    21 Juillet, Samedi

    Heure Température Précipitation Vent Pression Humidité
    00:00 +20°C° 0 mm 1 m/s 746 mmHg 97%
    01:00 +18°C° 0 mm 0 m/s 746 mmHg 97%
    02:00 +18°C° 0 mm 0 m/s 746 mmHg 97%
    03:00 +18°C° 0 mm 0 m/s 746 mmHg 97%
    04:00 +18°C° 0 mm 0 m/s 746 mmHg 97%
    05:00 +20°C° 0 mm 1 m/s 746 mmHg 97%
    06:00 +22°C° 0 mm 1 m/s 746 mmHg 93%
    07:00 +23°C° 0 mm 1 m/s 746 mmHg 89%
    08:00 +25°C° 0 mm 1 m/s 746 mmHg 85%
    09:00 +26°C° 0,3 mm 1 m/s 746 mmHg 80%
    10:00 +27°C° 0,3 mm 1 m/s 746 mmHg 75%
    11:00 +29°C° 0,3 mm 1 m/s 746 mmHg 69%
    12:00 +28°C° 0,6 mm 1 m/s 746 mmHg 69%
    13:00 +28°C° 0,6 mm 1 m/s 746 mmHg 69%
    14:00 +28°C° 0,6 mm 1 m/s 745 mmHg 69%
    15:00 +28°C° 0,3 mm 1 m/s 745 mmHg 69%
    16:00 +28°C° 0,3 mm 1 m/s 745 mmHg 70%
    17:00 +28°C° 0,3 mm 1 m/s 745 mmHg 71%
    18:00 +27°C° 0,5 mm 1 m/s 745 mmHg 77%
    19:00 +25°C° 0,5 mm 1 m/s 745 mmHg 83%
    20:00 +24°C° 0,5 mm 1 m/s 745 mmHg 89%
    21:00 +23°C° 0 mm 1 m/s 745 mmHg 91%
    22:00 +22°C° 0 mm 1 m/s 745 mmHg 93%
    23:00 +22°C° 0 mm 1 m/s 745 mmHg 95%
    Voir plus